Fountain Dale, PA

2:16 AM EDT on May 21, 2018 (GMT -0400)
Fountain Dale

Weather History for KRYT - October, 2012

Change the Weather History Date:

Thursday, October 4, 2012

  Actual Average (KHGR) Record (KHGR)
Temperature  
Mean Temperature 69 °F -  
Max Temperature 79 °F 66 °F 85 °F (2007)
Min Temperature 59 °F 47 °F 35 °F (1996)
Cooling Degree Days 4    
Growing Degree Days 19 (Base 50)    
Moisture  
Dew Point 63 °F    
Average Humidity 79    
Maximum Humidity 88    
Minimum Humidity 48    
Precipitation  
Precipitation 0.04 in - - ()
Sea Level Pressure  
Sea Level Pressure 30.12 in    
Wind  
Wind Speed 0 mph (SW)    
Max Wind Speed 6 mph    
Max Gust Speed -    
Visibility 5 miles    
Events Fog , Rain    
Averages and records for this station are not official NWS values.
T = Trace of Precipitation, MM = Missing Value Source: NWS Daily Summary

Daily Weather History Graph

Daily Weather History Graph

Search for Another Location

Airport or City:

Astronomy

Oct. 04, 2012 Rise Set
Actual Time 7:09 AM EDT 6:46 PM EDT
Civil Twilight 6:42 AM EDT 7:13 PM EDT
Nautical Twilight 6:11 AM EDT 7:44 PM EDT
Astronomical Twilight 5:39 AM EDT 8:16 PM EDT
Moon 9:21 PM EDT (10/4) 11:23 AM EDT (10/4)
Length of Visible Light 12h 31m
Length of Day
11h 37m
Waning Gibbous, 82% of the Moon is Illuminated
Oct 4
Waning Gibbous
Oct 8
Last Quarter
Oct 15
New
Oct 21
First Quarter
Oct 29
Full

Hourly Weather History & Observations

Time (EDT) Temp. Dew Point Humidity Pressure Visibility Wind Dir Wind Speed Gust Speed Precip Events Conditions
12:53 AM 69.1 °F 64.0 °F 84% 30.11 in 7.0 mi Calm Calm - N/A   Scattered Clouds
1:53 AM 68.0 °F 63.0 °F 84% 30.11 in 6.0 mi Calm Calm - 0.00 in   Haze
2:53 AM 68.0 °F 64.0 °F 87% 30.10 in 5.0 mi Calm Calm - 0.00 in Rain Light Rain
3:53 AM 68.0 °F 64.0 °F 87% 30.10 in 5.0 mi Calm Calm - 0.01 in   Overcast
4:53 AM 69.1 °F 64.9 °F 87% 30.09 in 5.0 mi Calm Calm - 0.01 in Rain Light Rain
5:07 AM 69.8 °F 64.4 °F 83% 30.12 in 2.0 mi Calm Calm - 0.00 in   Overcast
5:13 AM 68.0 °F 64.4 °F 88% 30.13 in 0.8 mi Calm Calm - 0.00 in   Overcast
5:27 AM 68.0 °F 64.4 °F 88% 30.14 in 0.5 mi Calm Calm - 0.00 in Fog , Rain Light Rain
5:53 AM 69.1 °F 64.0 °F 84% 30.11 in 2.5 mi Calm Calm - 0.01 in Rain Light Rain
6:08 AM 68.0 °F 64.4 °F 88% 30.14 in 1.8 mi Calm Calm - 0.00 in Rain Light Rain
6:19 AM 69.8 °F 64.4 °F 83% 30.14 in 3.0 mi Calm Calm - 0.00 in Rain Light Rain
6:38 AM 69.8 °F 64.4 °F 83% 30.13 in 1.8 mi Calm Calm - 0.00 in   Mostly Cloudy
6:53 AM 68.0 °F 64.0 °F 87% 30.09 in 0.5 mi Calm Calm - 0.00 in Fog Fog
7:05 AM 69.8 °F 64.4 °F 83% 30.13 in 2.0 mi Calm Calm - N/A   Haze
7:20 AM 69.8 °F 64.4 °F 83% 30.13 in 1.2 mi Calm Calm - N/A   Mostly Cloudy
7:34 AM 68.0 °F 64.4 °F 88% 30.14 in 1.0 mi Calm Calm - N/A   Mist
7:53 AM 68.0 °F 64.0 °F 87% 30.11 in 2.5 mi Calm Calm - N/A   Partly Cloudy
8:12 AM 69.8 °F 64.4 °F 83% 30.13 in 1.8 mi Calm Calm - N/A   Partly Cloudy
8:23 AM 69.8 °F 64.4 °F 83% 30.13 in 2.0 mi Calm Calm - N/A   Partly Cloudy
8:35 AM 69.8 °F 64.4 °F 83% 30.14 in 3.0 mi Calm Calm - N/A   Haze
8:55 AM 69.8 °F 64.4 °F 83% 30.13 in 1.8 mi Calm Calm - N/A   Haze
9:03 AM 69.8 °F 64.4 °F 83% 30.14 in 0.8 mi Calm Calm - N/A   Mostly Cloudy
9:10 AM 69.8 °F 64.4 °F 83% 30.14 in 2.0 mi Calm Calm - N/A   Mostly Cloudy
9:19 AM 69.8 °F 66.2 °F 88% 30.15 in 4.0 mi Calm Calm - N/A   Mostly Cloudy
9:53 AM 71.1 °F 66.0 °F 84% 30.12 in 5.0 mi Calm Calm - N/A   Haze
10:06 AM 71.6 °F 66.2 °F 83% 30.15 in 5.0 mi Calm Calm - N/A   Haze
10:45 AM 71.6 °F 66.2 °F 83% 30.16 in 4.0 mi Calm Calm - N/A   Haze
10:53 AM 72.0 °F 66.0 °F 81% 30.13 in 4.0 mi Calm Calm - N/A   Haze
11:13 AM 71.6 °F 66.2 °F 83% 30.15 in 4.0 mi Calm Calm - 0.00 in Rain Light Rain
11:22 AM 73.4 °F 66.2 °F 78% 30.16 in 5.0 mi Variable 5.8 mph - 0.00 in   Haze
11:53 AM 73.9 °F 64.9 °F 73% 30.12 in 5.0 mi Variable 3.5 mph - 0.00 in   Haze
12:53 PM 75.0 °F 64.0 °F 69% 30.11 in 7.0 mi Variable 4.6 mph - N/A   Partly Cloudy
1:53 PM 75.0 °F 61.0 °F 62% 30.10 in 10.0 mi Calm Calm - N/A   Clear
2:53 PM 77.0 °F 59.0 °F 54% 30.08 in 10.0 mi Variable 4.6 mph - 0.01 in   Partly Cloudy
3:53 PM 79.0 °F 59.0 °F 50% 30.08 in 10.0 mi Variable 3.5 mph - N/A   Scattered Clouds
4:53 PM 77.0 °F 55.9 °F 48% 30.07 in 10.0 mi Variable 4.6 mph - N/A   Clear
5:53 PM 75.0 °F 55.0 °F 50% 30.09 in 10.0 mi Calm Calm - N/A   Clear
6:53 PM 68.0 °F 57.9 °F 70% 30.09 in 10.0 mi Calm Calm - N/A   Clear
7:53 PM 64.0 °F 55.9 °F 75% 30.10 in 10.0 mi Calm Calm - N/A   Clear
8:53 PM 62.1 °F 55.9 °F 80% 30.11 in 9.0 mi Calm Calm - N/A   Clear
9:53 PM 61.0 °F 55.0 °F 81% 30.11 in 10.0 mi Calm Calm - N/A   Clear
10:53 PM 59.0 °F 55.0 °F 87% 30.12 in 7.0 mi SW 3.5 mph - N/A   Clear
11:53 PM 61.0 °F 54.0 °F 78% 30.12 in 9.0 mi Calm Calm - N/A   Clear